Location: �perlecques
(50.8057°N, 2.1521°E)
Time: 12:43:09
(UTC+00:00)

CUTE-I - Visible Passes

Search period start: 20 September 2021 00:00
Search period end: 30 September 2021 00:00
Orbit: 810 x 825 km, 98.7° (Epoch: 19 September)

Date Brightness Start Highest point End Pass type
(mag) Time Alt. Az. Time Alt. Az. Time Alt. Az.
21 Sep ? 18:57:00 10° WSW 18:59:36 14° W 19:02:13 10° NW visible
22 Sep ? 18:33:51 10° SW 18:37:45 20° W 18:41:40 10° NW visible
23 Sep ? 05:04:28 10° NE 05:08:14 19° E 05:11:58 10° SE visible
23 Sep ? 18:11:20 10° SSW 18:15:58 29° W 18:20:37 10° NNW visible
24 Sep ? 04:44:01 10° ENE 04:46:22 13° E 04:48:42 10° ESE visible
25 Sep ? 19:13:20 10° W 19:13:44 10° W 19:14:08 10° WNW visible
26 Sep ? 18:48:41 10° WSW 18:51:50 16° W 18:55:00 10° NW visible
27 Sep ? 18:25:48 10° SW 18:29:59 23° W 18:34:12 10° NW visible
28 Sep ? 04:57:06 10° NE 05:00:28 17° E 05:03:49 10° SE visible
28 Sep ? 18:03:26 10° SSW 18:08:15 33° W 18:13:04 10° NNW visible
29 Sep ? 04:37:12 10° ENE 04:38:34 11° E 04:39:56 10° E visible
